Location: Newark
(60.7728°N, 46.2261°E)
Time: 14:04:38
(UTC+00:00)

ISS - Visible Passes

Search period start: 22 September 2019 00:00
Search period end: 02 October 2019 00:00
Orbit: 411 x 421 km, 51.6° (Epoch: 22 September)

Date Brightness Start Highest point End Pass type
(mag) Time Alt. Az. Time Alt. Az. Time Alt. Az.
23 Sep -1.4 17:06:54 10° SSW 17:07:36 13° SSW 17:07:36 13° SSW visible
24 Sep -1.7 16:18:59 10° S 16:20:38 13° SSE 16:21:06 13° SSE visible
25 Sep -1.4 15:31:25 10° S 15:32:23 11° SSE 15:33:22 10° SE visible
25 Sep -1.7 17:05:56 10° SW 17:07:25 16° SSW 17:07:25 16° SSW visible
26 Sep -1.8 16:17:44 10° SSW 16:19:54 16° S 16:20:46 15° SSE visible
27 Sep -1.6 15:29:39 10° SSW 15:31:36 15° SSE 15:33:33 10° SE visible
27 Sep -1.7 17:05:14 10° SW 17:06:58 17° SSW 17:06:58 17° SSW visible
28 Sep -1.8 16:16:52 10° SW 16:19:10 17° S 16:20:14 15° SSE visible
29 Sep -1.7 15:28:34 10° SW 15:30:49 17° S 15:33:06 10° SE visible
29 Sep -1.5 17:04:46 10° SW 17:06:22 14° SSW 17:06:22 14° SSW visible
30 Sep -1.6 16:16:13 10° SW 16:18:23 16° S 16:19:37 14° SSE visible
01 Oct -1.6 15:27:45 10° SW 15:30:01 17° S 15:32:17 10° SE visible
01 Oct -1.1 17:04:55 10° SW 17:05:45 11° SSW 17:05:45 11° SSW visible
